Kirksville, MO

7:14 AM CDT on August 23, 2017 (GMT -0500)
Kirksville Regional

Weather History for KIRK - September, 2013

Change the Weather History Date:

Monday, September 2, 2013

  Actual Average Record
Temperature  
Mean Temperature 71 °F 70 °F  
Max Temperature 84 °F 81 °F 97 °F (1947)
Min Temperature 57 °F 59 °F 43 °F (1967)
Degree Days  
Heating Degree Days 0 1  
Month to date heating degree days 0 2  
Since 1 July heating degree days 13 9  
Cooling Degree Days 6 6  
Month to date cooling degree days 18 12  
Year to date cooling degree days 828 856  
Growing Degree Days 20 (Base 50)    
Moisture  
Dew Point 54 °F    
Average Humidity 61    
Maximum Humidity 93    
Minimum Humidity 28    
Precipitation  
Precipitation 0.00 in 0.15 in 3.40 in (1936)
Month to date precipitation T 0.31  
Year to date precipitation 29.89 27.72  
Sea Level Pressure  
Sea Level Pressure 30.00 in    
Wind  
Wind Speed 7 mph (North)    
Max Wind Speed 13 mph    
Max Gust Speed 22 mph    
Visibility 10 miles    
Events      
T = Trace of Precipitation, MM = Missing Value Source: NWS Daily Summary

Daily Weather History Graph

Daily Weather History Graph

Search for Another Location

Airport or City:

Trip Planner

Search our weather history database for the weather conditions in past years. The results will help you decide how hot, cold, wet, or windy it might be!

Date:

Astronomy

Sep. 02, 2013 Rise Set
Actual Time 6:39 AM CDT 7:39 PM CDT
Civil Twilight 6:11 AM CDT 8:07 PM CDT
Nautical Twilight 5:38 AM CDT 8:40 PM CDT
Astronomical Twilight 5:03 AM CDT 9:14 PM CDT
Moon 3:56 AM CDT (9/2) 5:53 PM CDT (9/2)
Length of Visible Light 13h 56m
Length of Day
13h 00m
Waning Crescent, 8% of the Moon is Illuminated
Sep 2
Waning Crescent
Sep 5
New
Sep 12
First Quarter
Sep 19
Full
Sep 26
Last Quarter

Hourly Weather History & Observations

Time (CDT) Temp. Heat Index Dew Point Humidity Pressure Visibility Wind Dir Wind Speed Gust Speed Precip Events Conditions
12:55 AM 66.9 °F - 59.0 °F 76% 29.94 in 10.0 mi North 8.1 mph - N/A   Clear
1:55 AM 64.9 °F - 59.0 °F 81% 29.94 in 10.0 mi NNW 6.9 mph - N/A   Clear
2:55 AM 63.0 °F - 57.9 °F 84% 29.95 in 10.0 mi NNW 6.9 mph - N/A   Clear
3:55 AM 62.1 °F - 57.9 °F 86% 29.96 in 10.0 mi NNW 5.8 mph - N/A   Clear
4:55 AM 61.0 °F - 57.0 °F 87% 29.97 in 10.0 mi NNW 5.8 mph - N/A   Clear
5:55 AM 60.1 °F - 57.0 °F 90% 29.99 in 10.0 mi NNW 5.8 mph - N/A   Clear
6:55 AM 59.0 °F - 57.0 °F 93% 29.99 in 10.0 mi NNW 5.8 mph - N/A   Clear
7:55 AM 64.0 °F - 57.9 °F 80% 30.01 in 10.0 mi North 10.4 mph - N/A   Clear
8:55 AM 68.0 °F - 57.9 °F 70% 30.02 in 10.0 mi North 9.2 mph - N/A   Clear
9:55 AM 72.0 °F - 59.0 °F 64% 30.04 in 10.0 mi North 10.4 mph - N/A   Clear
10:55 AM 75.0 °F - 57.0 °F 53% 30.04 in 10.0 mi NNE 12.7 mph - N/A   Partly Cloudy
11:55 AM 77.0 °F - 57.0 °F 50% 30.04 in 10.0 mi North 11.5 mph 16.1 mph N/A   Scattered Clouds
12:55 PM 79.0 °F - 55.9 °F 45% 30.03 in 10.0 mi Variable 6.9 mph - N/A   Clear
1:55 PM 82.0 °F 81.4 °F 55.0 °F 39% 30.01 in 10.0 mi Variable 6.9 mph - N/A   Clear
2:55 PM 82.9 °F 81.9 °F 54.0 °F 37% 30.00 in 10.0 mi NNW 6.9 mph 16.1 mph N/A   Clear
3:55 PM 82.9 °F - 51.1 °F 33% 29.99 in 10.0 mi NNW 6.9 mph - N/A   Clear
4:55 PM 82.9 °F - 48.0 °F 29% 29.98 in 10.0 mi NNW 6.9 mph - N/A   Clear
5:55 PM 82.0 °F - 46.0 °F 28% 29.98 in 10.0 mi NNW 8.1 mph - N/A   Clear
6:55 PM 78.1 °F - 48.9 °F 36% 29.98 in 10.0 mi North 4.6 mph - N/A   Clear
7:55 PM 69.1 °F - 50.0 °F 51% 29.99 in 10.0 mi North 3.5 mph - N/A   Clear
8:55 PM 64.9 °F - 51.1 °F 61% 30.01 in 10.0 mi North 4.6 mph - N/A   Clear
9:55 PM 62.1 °F - 51.1 °F 67% 30.02 in 10.0 mi North 4.6 mph - N/A   Clear
10:55 PM 61.0 °F - 50.0 °F 67% 30.03 in 10.0 mi North 4.6 mph - N/A   Clear
11:55 PM 59.0 °F - 50.0 °F 72% 30.04 in 10.0 mi NNE 5.8 mph - N/A   Clear